Location: Gro� Glienicke
(52.4675°N, 13.1079°E)
Time: 18:07:40
(UTC+00:00)

Cosmos 1766 Rocket - Pass Details

Date: 06 July 2020
Orbit: 606 x 632 km, 82.5° (Epoch: 12 August)

Event Time Altitude Azimuth Distance (km) Brightness Sun altitude
Exits shadow 23:01:31 20° 212° (SSW) 1,440 5.0 -14.9°
Maximum altitude 23:04:24 55° 285° (WNW) 747 4.0 -15.0°
Drops below altitude 10° 23:08:47 10° 4° (N) 2,007 7.6 -15.0°
Sets 23:11:05 0° 9° (N) 2,923 8.8 -15.0°
